This is the latest recevied weather packets stored in our database for station/object KE6LRO. If no packets are shown the sender has not sent any weather packets the latest 10 day(s).
| Time | Temp. | Humidity | Pressure | Rain* | Wind** | Luminosity | Snow |
|---|---|---|---|---|---|---|---|
| 1778032180 | 11.67° C | 41% | 1018.7 hPa | 0 mm | - | 27 W/m² | - |
| 1778031877 | 12.78° C | 40% | 1018.9 hPa | 0 mm | - | 28 W/m² | - |
| 1778031573 | 13.89° C | 37% | 1018.9 hPa | 0 mm | - | 35 W/m² | - |
| 1778031271 | 13.89° C | 34% | 1019.1 hPa | 0 mm | - | 49 W/m² | - |
| 1778030968 | 13.89° C | 33% | 1018.9 hPa | 0 mm | - | 57 W/m² | - |
| 1778030664 | 13.89° C | 33% | 1018.8 hPa | 0 mm | - | 65 W/m² | - |
| 1778030361 | 14.44° C | 32% | 1018.8 hPa | 0 mm | - | 72 W/m² | - |
| 1778030058 | 14.44° C | 33% | 1018.8 hPa | 0 mm | - | 81 W/m² | - |
| 1778029755 | 14.44° C | 33% | 1018.7 hPa | 0 mm | - | 91 W/m² | - |
| 1778029454 | 15° C | 31% | 1018.7 hPa | 0 mm | - | 103 W/m² | - |
| 1778029150 | 15° C | 32% | 1018.6 hPa | 0 mm | - | 115 W/m² | - |
| 1778028848 | 15° C | 32% | 1018.8 hPa | 0 mm | - | 126 W/m² | - |
| 1778028543 | 15° C | 32% | 1018.6 hPa | 0 mm | - | 139 W/m² | - |
| 1778028241 | 15° C | 30% | 1018.7 hPa | 0 mm | - | 152 W/m² | - |
| 1778027937 | 15.56° C | 31% | 1018.6 hPa | 0 mm | - | 164 W/m² | - |
| 1778027633 | 15° C | 31% | 1018.7 hPa | 0 mm | - | 178 W/m² | - |
| 1778027330 | 15.56° C | 31% | 1018.4 hPa | 0 mm | - | 191 W/m² | - |
| 1778027026 | 15.56° C | 30% | 1018.5 hPa | 0 mm | - | 204 W/m² | - |
| 1778026721 | 15.56° C | 31% | 1018.5 hPa | 0 mm | - | 219 W/m² | - |
| 1778026419 | 15.56° C | 32% | 1018.4 hPa | 0 mm | - | 232 W/m² | - |
| 1778026116 | 15.56° C | 31% | 1018.4 hPa | 0 mm | - | 247 W/m² | - |
| 1778025814 | 15.56° C | 31% | 1018.4 hPa | 0 mm | - | 260 W/m² | - |
| 1778025510 | 16.11° C | 30% | 1018.5 hPa | 0 mm | - | 275 W/m² | - |
| 1778025208 | 15.56° C | 29% | 1018.4 hPa | 0 mm | - | 289 W/m² | - |
| 1778024904 | 16.11° C | 29% | 1018.3 hPa | 0 mm | - | 309 W/m² | - |
* Rain latest hour (hover to see other rain measurements)
** Current wind speed in m/s (hover to see current wind gust speed)